Tillbaka till svenska Fidonet
English   Information   Debug  
FILM   0/18
FNEWS_PUBLISH   4926
FN_SYSOP   42201
FN_SYSOP_OLD1   71952
FTP_FIDO   0/2
FTSC_PUBLIC   0/13972
FUNNY   0/4886
GENEALOGY.EUR   0/71
GET_INFO   105
GOLDED   0/408
HAM   5517/16660
HOLYSMOKE   0/6791
HOT_SITES   0/1
HTMLEDIT   0/71
HUB203   466
HUB_100   264
HUB_400   39
HUMOR   0/29
IC   0/2851
INTERNET   0/424
INTERUSER   0/3
IP_CONNECT   719
JAMNNTPD   0/233
JAMTLAND   0/47
KATTY_KORNER   0/41
LAN   0/16
LINUX-USER   0/19
LINUXHELP   0/1155
LINUX   0/22300
LINUX_BBS   0/957
mail   18.68
mail_fore_ok   249
MENSA   0/341
MODERATOR   0/102
MONTE   0/992
MOSCOW_OKLAHOMA   0/1245
MUFFIN   0/783
MUSIC   0/321
N203_STAT   938
N203_SYSCHAT   313
NET203   321
NET204   69
NET_DEV   0/10
NORD.ADMIN   0/101
NORD.CHAT   0/2572
NORD.FIDONET   189
NORD.HARDWARE   0/28
NORD.KULTUR   0/114
NORD.PROG   0/32
NORD.SOFTWARE   0/88
NORD.TEKNIK   0/58
NORD   0/453
OCCULT_CHAT   0/93
OS2BBS   0/787
OS2DOSBBS   0/580
OS2HW   0/42
OS2INET   0/37
OS2LAN   0/134
OS2PROG   0/36
OS2REXX   0/113
OS2USER-L   207
OS2   0/4830
OSDEBATE   2331/18996
PASCAL   0/490
PERL   0/457
PHP   0/45
POINTS   0/405
POLITICS   0/29554
POL_INC   0/14731
PSION   103
R20_ADMIN   1133
R20_AMATORRADIO   0/2
R20_BEST_OF_FIDONET   16
R20_CHAT   0/896
R20_DEPP   0/3
R20_DEV   400
R20_ECHO2   1831
R20_ECHOPRES   0/35
R20_ESTAT   0/719
R20_FIDONETPROG...
...RAM.MYPOINT
  0/2
R20_FIDONETPROGRAM   0/22
R20_FIDONET   0/248
R20_FILEFIND   0/24
R20_FILEFOUND   0/22
R20_HIFI   0/3
R20_INFO2   3723
R20_INTERNET   0/12940
R20_INTRESSE   0/60
R20_INTR_KOM   0/99
R20_KANDIDAT.CHAT   42
R20_KANDIDAT   28
R20_KOM_DEV   112
R20_KONTROLL   0/13360
R20_KORSET   0/18
R20_LOKALTRAFIK   0/24
R20_MODERATOR   0/1852
R20_NC   76
R20_NET200   245
R20_NETWORK.OTH...
...ERNETS
  0/13
R20_OPERATIVSYS...
...TEM.LINUX
  0/44
R20_PROGRAMVAROR   0/1
R20_REC2NEC   534
R20_SFOSM   0/341
R20_SF   0/108
R20_SPRAK.ENGLISH   0/1
R20_SQUISH   107
R20_TEST   2
R20_WORST_OF_FIDONET   20
RAR   0/9
RA_MULTI   106
RA_UTIL   0/162
REGCON.EUR   0/2068
REGCON   0/13
SCIENCE   0/1206
SF   0/239
SHAREWARE_SUPPORT   0/5146
SHAREWRE   0/14
SIMPSONS   0/169
STATS_OLD1   0/2539.065
STATS_OLD2   0/2530
STATS_OLD3   0/2395.095
STATS_OLD4   0/1692.25
SURVIVOR   0/495
SYSOPS_CORNER   0/3
SYSOP   0/84
TAGLINES   0/112
TEAMOS2   0/4530
TECH   0/2617
TEST.444   0/105
TRAPDOOR   0/19
TREK   0/755
TUB   0/290
UFO   0/40
UNIX   0/1316
USA_EURLINK   0/102
USR_MODEMS   0/1
VATICAN   0/2740
VIETNAM_VETS   0/14
VIRUS   0/378
VIRUS_INFO   0/201
VISUAL_BASIC   0/473
WHITEHOUSE   0/5187
WIN2000   0/101
WIN32   0/30
WIN95   0/4291
WIN95_OLD1   36966/70272
WINDOWS   0/1517
WWB_SYSOP   0/419
WWB_TECH   0/810
ZCC-PUBLIC   0/1
ZEC   4

 
4DOS   0/134
ABORTION   0/7
ALASKA_CHAT   0/506
ALLFIX_FILE   0/1313
ALLFIX_FILE_OLD1   0/7997
ALT_DOS   0/152
AMATEUR_RADIO   0/1039
AMIGASALE   0/14
AMIGA   0/331
AMIGA_INT   0/1
AMIGA_PROG   0/20
AMIGA_SYSOP   0/26
ANIME   0/15
ARGUS   0/924
ASCII_ART   0/340
ASIAN_LINK   0/651
ASTRONOMY   0/417
AUDIO   0/92
AUTOMOBILE_RACING   0/105
BABYLON5   0/17862
BAG   135
BATPOWER   0/361
BBBS.ENGLISH   0/382
BBSLAW   0/109
BBS_ADS   0/5290
BBS_INTERNET   0/507
BIBLE   0/3563
BINKD   0/1119
BINKLEY   0/215
BLUEWAVE   0/2173
CABLE_MODEMS   0/25
CBM   0/46
CDRECORD   0/66
CDROM   0/20
CLASSIC_COMPUTER   0/378
COMICS   0/15
CONSPRCY   0/899
COOKING   41444
COOKING_OLD1   0/24719
COOKING_OLD2   0/40862
COOKING_OLD3   0/37489
COOKING_OLD4   0/35496
COOKING_OLD5   9370
C_ECHO   0/189
C_PLUSPLUS   0/31
DIRTY_DOZEN   0/201
DOORGAMES   0/2285
DOS_INTERNET   0/196
duplikat   6102
ECHOLIST   0/18295
EC_SUPPORT   0/318
ELECTRONICS   0/359
ELEKTRONIK.GER   1534
ENET.LINGUISTIC   0/13
ENET.POLITICS   0/4
ENET.SOFT   0/11701
ENET.SYSOP   34296
ENET.TALKS   0/32
ENGLISH_TUTOR   0/2000
EVOLUTION   0/1335
FDECHO   0/217
FDN_ANNOUNCE   0/7068
FIDONEWS   25062
FIDONEWS_OLD1   0/49742
FIDONEWS_OLD2   0/35949
FIDONEWS_OLD3   477/30874
FIDONEWS_OLD4   0/37224
FIDO_SYSOP   12922
FIDO_UTIL   0/180
FILEFIND   0/209
FILEGATE   0/212
Möte HAM, 16660 texter
 lista första sista föregående nästa
Text 5393, 993 rader
Skriven 2012-07-05 23:30:58 av Amsat List (1:323/120.0)
Ärende: [keps] orb12187.amsa
============================
[keps] orb12187.amsa

Sender: keps-bounces@amsat.org
Return-Path: <keps-bounces@amsat.org>
X-Rcpt: craig.healy@chowda.com
X-UIDL: 1341545149.918

SB KEPS @ AMSAT  $ORB12187.O
Orbital Elements  12187.OSCAR

HR AMSAT ORBITAL ELEMENTS FOR OSCAR SATELLITES
FROM WA5QGD FORT WORTH,TX July 5, 2012
Send SUBSCRIBE KEPS/UNSUBSCRIBE KEPS to majordomo@amsat.org only
BID: ORB12187.O
TO ALL RADIO AMATEURS BT

Satellite: AO-07
Catalog number: 07530
Epoch time:      12186.62272335
Element set:    0423
Inclination:      101.4027 deg
RA of node:       183.1602 deg
Eccentricity:    0.0011553
Arg of perigee:   248.9865 deg
Mean anomaly:     110.9971 deg
Mean motion:   12.53590036 rev/day
Decay rate:       -2.7e-07 rev/day^2
Epoch rev:           72223
Checksum:              271

Satellite: FO-29
Catalog number: 24278
Epoch time:      12186.34146136
Element set:    0924
Inclination:      098.5872 deg
RA of node:       284.7513 deg
Eccentricity:    0.0350379
Arg of perigee:   345.0507 deg
Mean anomaly:     014.0478 deg
Mean motion:   13.52984137 rev/day
Decay rate:       -3.8e-07 rev/day^2
Epoch rev:           78427
Checksum:              333

Satellite: SO-33
Catalog number: 25509
Epoch time:      12186.52736649
Element set:    0271
Inclination:      031.4351 deg
RA of node:       235.5598 deg
Eccentricity:    0.0352598
Arg of perigee:   354.9564 deg
Mean anomaly:     004.7560 deg
Mean motion:   14.28784261 rev/day
Decay rate:       1.60e-06 rev/day^2
Epoch rev:           71513
Checksum:              318

Satellite: RS-22
Catalog number: 27939
Epoch time:      12186.76688135
Element set:    0506
Inclination:      097.8107 deg
RA of node:       026.6799 deg
Eccentricity:    0.0012812
Arg of perigee:   205.3580 deg
Mean anomaly:     154.6994 deg
Mean motion:   14.64056270 rev/day
Decay rate:       4.86e-06 rev/day^2
Epoch rev:           46845
Checksum:              343

Satellite: VO-52
Catalog number: 28650
Epoch time:      12186.66518206
Element set:    0146
Inclination:      097.5959 deg
RA of node:       216.7647 deg
Eccentricity:    0.0026036
Arg of perigee:   346.7289 deg
Mean anomaly:     013.3230 deg
Mean motion:   14.83021109 rev/day
Decay rate:      1.375e-05 rev/day^2
Epoch rev:           38756
Checksum:              319

Satellite: HO-68
Catalog number: 36122
Epoch time:      12186.77317736
Element set:    0613
Inclination:      100.3599 deg
RA of node:       245.7646 deg
Eccentricity:    0.0007885
Arg of perigee:   070.5171 deg
Mean anomaly:     289.6785 deg
Mean motion:   13.16296558 rev/day
Decay rate:       -4.4e-07 rev/day^2
Epoch rev:           12270
Checksum:              330

/EX
SB KEPS @ AMSAT  $ORB12187.D
Orbital Elements  12187.MICROS

HR AMSAT ORBITAL ELEMENTS FOR THE MICROSATS
FROM WA5QGD FORT WORTH,TX July 5, 2012
Send SUBSCRIBE KEPS/UNSUBSCRIBE KEPS to majordomo@amsat.org only
BID: ORB12187.D
TO ALL RADIO AMATEURS BT

Satellite: UO-11
Catalog number: 14781
Epoch time:      12186.82864432
Element set:    0921
Inclination:      097.9532 deg
RA of node:       246.1940 deg
Eccentricity:    0.0008566
Arg of perigee:   343.7431 deg
Mean anomaly:     016.3506 deg
Mean motion:   14.80480057 rev/day
Decay rate:       3.92e-06 rev/day^2
Epoch rev:           52254
Checksum:              301

Satellite: AO-16
Catalog number: 20439
Epoch time:      12186.90419208
Element set:    0511
Inclination:      098.4318 deg
RA of node:       129.7827 deg
Eccentricity:    0.0011742
Arg of perigee:   104.0036 deg
Mean anomaly:     256.2453 deg
Mean motion:   14.32062456 rev/day
Decay rate:        4.1e-07 rev/day^2
Epoch rev:           17253
Checksum:              275

Satellite: LO-19
Catalog number: 20442
Epoch time:      12186.92450594
Element set:    0452
Inclination:      098.3948 deg
RA of node:       132.7457 deg
Eccentricity:    0.0012802
Arg of perigee:   097.0085 deg
Mean anomaly:     263.2555 deg
Mean motion:   14.32280454 rev/day
Decay rate:        1.2e-07 rev/day^2
Epoch rev:           17272
Checksum:              295

Satellite: AO-27
Catalog number: 22825
Epoch time:      12186.88491635
Element set:    0142
Inclination:      098.5719 deg
RA of node:       129.4244 deg
Eccentricity:    0.0007706
Arg of perigee:   222.1841 deg
Mean anomaly:     137.8745 deg
Mean motion:   14.29468615 rev/day
Decay rate:        9.0e-07 rev/day^2
Epoch rev:           97900
Checksum:              328

Satellite: IO-26
Catalog number: 22826
Epoch time:      12186.88240179
Element set:    0899
Inclination:      098.5702 deg
RA of node:       129.7875 deg
Eccentricity:    0.0008098
Arg of perigee:   219.2047 deg
Mean anomaly:     140.8547 deg
Mean motion:   14.29742949 rev/day
Decay rate:        4.8e-07 rev/day^2
Epoch rev:           97913
Checksum:              363

Satellite: GO-32
Catalog number: 25397
Epoch time:      12186.55088053
Element set:    0818
Inclination:      098.3615 deg
RA of node:       164.4052 deg
Eccentricity:    0.0000635
Arg of perigee:   176.0599 deg
Mean anomaly:     184.0557 deg
Mean motion:   14.23280979 rev/day
Decay rate:        1.5e-07 rev/day^2
Epoch rev:           72649
Checksum:              325

Satellite: NO-44
Catalog number: 26931
Epoch time:      12186.94835454
Element set:    0083
Inclination:      067.0532 deg
RA of node:       074.5671 deg
Eccentricity:    0.0007528
Arg of perigee:   259.6333 deg
Mean anomaly:     100.3895 deg
Mean motion:   14.29808168 rev/day
Decay rate:      -1.30e-06 rev/day^2
Epoch rev:           56178
Checksum:              321

